#timestamp,LO_Frequency,Hit,StdDev 
1583758815.4,286047002.5,N
1583758835.2,286047002.5,N
1583758855.1,286046999.7,N
1583758856.0,286046999.7,N
1583758875.8,286047000.4,N
1583758895.6,286047000.3,N
1583758915.5,286047001.9,N
1583758935.3,286047005.5,N
1583758955.2,286047002.1,N
1583758975.9,286047002.5,N
1583758995.7,286047002.0,N
1583759015.6,286047002.1,N
1583759035.4,286047004.0,N
1583759055.2,286047004.0,N
1583759075.1,286047005.5,Y
1583759076.0,286047005.5,P
1583759095.8,286047003.2,N
1583759115.7,286047002.6,N
1583759135.5,286047000.8,N
1583759155.3,286047000.1,N
1583759175.2,286047002.8,N
1583759195.0,286046999.8,N
1583759195.9,286046999.8,N
1583759215.8,286047002.7,N
1583759235.6,286047000.5,N
1583759255.4,286047000.1,N
1583759275.3,286046999.0,N
1583759295.1,286046997.5,N
1583759315.9,286046998.1,N
1583759335.7,286046998.7,N
1583759355.5,286046998.6,N
1583759375.4,286046998.4,N
1583759395.2,286046998.3,N
1583759415.0,286046999.0,N
1583759415.9,286046999.0,N
1583759435.8,286046995.2,N
1583759455.6,286046994.9,N
1583759475.5,286046997.7,N
1583759495.3,286046997.1,N
1583759515.1,286046996.5,N
1583759535.9,286046995.7,N
1583759555.7,286046994.0,N
1583759575.6,286046993.3,N
1583759595.4,286046993.3,N
1583759615.2,286046997.8,N
1583759635.1,286046997.1,N
1583759636.0,286046997.1,N
1583759655.8,286046997.6,N
1583759675.6,286046995.4,N
1583759695.5,286046996.6,N
1583759715.3,286046996.9,N
1583759735.2,286046996.8,N
1583759755.9,286046998.5,N
1583759775.7,286047000.2,N
1583759795.6,286047001.0,N
1583759815.4,286047002.4,N
1583759835.3,286047002.0,N
1583759855.1,286047002.0,N
1583759856.0,286047002.0,N
1583759875.8,286047000.5,N
1583759895.7,286047000.4,N
1583759915.7,286047001.8,N
1583759935.6,286047003.7,N
1583759955.4,286047003.8,N
1583759975.2,286047000.6,N
1583759995.1,286047000.6,N
1583759996.0,286047000.6,N
1583760015.8,286047002.6,N
1583760035.7,286047003.2,N
1583760055.5,286047004.1,N
1583760075.4,286047001.6,N
1583760095.2,286047001.7,N
1583760115.0,286047011.9,Y
1583760115.9,286047003.7,P
1583760135.8,286047004.0,N
1583760155.6,286047004.0,N
1583760175.5,286047000.0,N
1583760195.3,286047002.3,N
1583760215.1,286046999.7,N
1583760235.9,286046999.8,N
1583760255.7,286047000.6,N
1583760305.6,286046998.8,E
1583760315.5,286046998.2,N
1583760335.3,286046998.2,P
1583760355.2,286047000.1,P
1583760375.0,286047002.3,N
1583760375.9,286047002.3,N
1583760395.8,286046999.7,N
1583760415.6,286046998.6,N
1583760435.4,286046999.1,N
1583760455.3,286046999.4,N
1583760475.1,286046999.6,N
1583760495.8,286046995.6,Y
1583760515.7,286046995.4,P
1583760535.5,286046997.3,N
1583760555.4,286046998.0,N
1583760575.2,286046995.0,Y
1583760595.0,286046996.6,P
1583760595.9,286046996.6,P
1583760615.8,286046997.0,P
1583760635.6,286046997.4,Y
1583760655.5,286046999.9,P
1583760675.3,286047000.1,N
1583760695.1,286047000.3,N
1583760715.9,286046998.4,N
1583760735.2,286046998.2,N
1583760755.0,286047001.2,N
1583760755.9,286047001.2,N
1583760775.7,286046998.2,N
1583760795.6,286046999.2,N
1583760815.4,286046997.4,N
1583760835.3,286046999.0,N
1583760855.1,286046998.5,N
1583760875.9,286046999.4,N
1583760895.7,286046999.2,N
1583760915.5,286046999.1,N
1583760935.4,286046999.2,N
1583760955.2,286046999.2,N
1583760975.0,286046997.5,N
1583760976.0,286046997.5,N
1583760995.8,286046995.0,Y
1583761015.6,286046997.7,P
1583761035.5,286046998.0,P
1583761055.3,286046995.0,P
1583761075.1,286046995.7,N
1583761095.9,286046996.0,N
1583761115.7,286047011.9,Y
1583761135.6,286046997.2,P
1583761155.4,286046995.3,P
1583761175.2,286046996.2,P
1583761195.1,286046995.6,Y
1583761196.0,286046995.6,P
1583761215.8,286046999.5,N
1583761235.7,286046995.4,N
1583761255.5,286046999.0,N
1583761275.3,286046997.2,N
1583761295.2,286046996.7,N
1583761315.0,286046997.1,N
1583761315.9,286046997.1,N
1583761335.8,286046996.6,N
1583761355.6,286046999.2,N
1583761375.4,286046998.9,N
1583761395.3,286046998.8,N
1583761415.1,286046998.5,N
1583761435.8,286047000.6,N
1583761455.7,286046998.7,N
1583761475.5,286046999.5,N
1583761495.4,286046997.6,N
1583761515.2,286046998.0,N
1583761535.0,286046995.3,Y
1583761535.9,286046995.3,P
1583761555.8,286046998.8,N
1583761575.6,286047001.2,N
1583761595.5,286046998.6,N
1583761615.3,286047000.3,N
1583761635.1,286046998.3,N
1583761655.9,286047000.6,N
1583761675.7,286047000.0,N
1583761695.5,286047002.7,N
1583761715.4,286047002.2,N
1583761735.2,286047001.8,N
1583761755.1,286047006.0,N
1583761756.0,286047006.0,N
1583761775.8,286047003.7,N
1583761795.6,286047003.6,N
1583761815.5,286047004.0,N
1583761835.3,286047004.0,N
1583761855.2,286047002.0,N
1583761875.9,286047001.5,N
1583761895.7,286047001.4,N
1583761915.6,286047005.2,N
1583761935.4,286047005.6,N
1583761955.2,286047004.3,N
1583761975.1,286047000.0,N
1583761976.0,286047000.0,N
1583761995.8,286047005.6,N
1583762015.7,286047003.4,N
1583762035.5,286047005.5,N
1583762055.3,286047003.8,N
1583762075.2,286047002.9,N
1583762095.0,286047003.3,N
1583762095.9,286047003.3,N
1583762115.8,286047005.9,N
1583762135.6,286047004.7,N
1583762155.4,286047007.6,Y
1583762175.3,286047001.5,P
1583762195.1,286047003.7,P
1583762215.8,286047002.9,P
1583762235.7,286047001.4,N
1583762255.5,286047003.9,Y
1583762275.4,286047000.9,P
1583762295.2,286046999.6,N
1583762315.0,286046999.1,N
1583762315.9,286046999.1,N
1583762335.8,286047001.1,N
1583762355.6,286047000.7,N
1583762375.5,286046998.1,N
1583762395.3,286047002.1,N
